Location: Clanezzo
(45.7500°N, 9.6000°E)
Time: 01:09:49
(UTC+00:00)

Meteor 1-14 Rocket - Pass Details

Date: 12 May 2021
Orbit: 833 x 919 km, 81.3° (Epoch: 23 June)

Event Time Altitude Azimuth Distance (km) Brightness Sun altitude
Rises 19:47:06 0° 351° (N) 3,535 8.3 -10.1°
Reaches altitude 10° 19:49:38 10° 356° (N) 2,578 7.4 -10.5°
Maximum altitude 19:55:26 60° 76° (ENE) 1,004 4.4 -11.2°
Enters shadow 20:00:25 13° 154° (SSE) 2,266 5.9 -11.9°
